Weather reports worldwide

Advertisment
Antwerpen, Belgium (6450): temperature & dewpoint: 14.10.2020 16:00:00 - 20.10.2020 16:00:00 (CEST)Antwerpen, Belgium (6450): wind speed & gusts: 14.10.2020 16:00:00 - 20.10.2020 16:00:00 (CEST)Antwerpen, Belgium (6450): wind direction: 14.10.2020 16:00:00 - 20.10.2020 16:00:00 (CEST)Antwerpen, Belgium (6450): reduced air pressure: 14.10.2020 16:00:00 - 20.10.2020 16:00:00 (CEST)Antwerpen, Belgium (6450): visibility: 14.10.2020 16:00:00 - 20.10.2020 16:00:00 (CEST)
Date & Time tt [°C] td [°C] ff [km/h] ff [kn] fx [km/h] fx [kn] dd ppp [hPa] vv [km]
20.10.2020 16:00:00 16,0 10,0 16 9 - - SSW - 10
20.10.2020 15:00:00 16,0 10,0 18 10 - - SSW - 10
20.10.2020 14:00:00 16,0 10,0 22 12 - - SSW - 10
20.10.2020 13:00:00 15,0 10,0 18 10 - - S - 10
20.10.2020 12:00:00 13,2 9,2 15 8 25 14 S 1008,3 10
20.10.2020 11:00:00 12,8 8,5 13 7 - - S 1008,0 10
20.10.2020 10:00:00 12,3 7,8 11 6 25 14 S 1008,1 10
20.10.2020 09:00:00 11,4 7,1 13 7 25 14 S 1007,7 10
20.10.2020 08:00:00 10,5 6,6 11 6 - - S 1007,4 10
20.10.2020 07:00:00 8,9 5,9 13 7 18 10 SE 1007,5 10
20.10.2020 06:00:00 7,9 5,3 11 6 18 10 SE 1008,2 10
20.10.2020 05:00:00 7,2 5,1 11 6 - - ESE 1009,1 10
20.10.2020 04:00:00 7,6 5,1 8 4 14 8 SE 1010,2 10
20.10.2020 03:00:00 8,4 4,9 9 5 22 12 SE 1011,0 10
20.10.2020 02:00:00 7,0 4,8 13 7 - - SE 1012,0 10
20.10.2020 01:00:00 8,2 5,7 13 7 18 10 ESE 1012,9 10
20.10.2020 00:00:00 8,0 5,3 11 6 18 10 E 1013,6 10
19.10.2020 23:00:00 8,9 6,2 11 6 - - SE 1014,5 10
19.10.2020 22:00:00 9,5 6,4 16 9 25 14 ESE 1015,1 10
19.10.2020 21:00:00 9,0 6,3 11 6 14 8 SE 1016,3 10
19.10.2020 20:00:00 10,6 6,3 11 6 - - SSE 1017,2 10
19.10.2020 19:00:00 11,6 6,3 11 6 18 10 SSE 1017,2 10
19.10.2020 18:00:00 12,6 7,0 13 7 18 10 SE 1017,6 10
19.10.2020 17:00:00 13,6 6,5 11 6 - - SSE 1018,6 10
19.10.2020 16:00:00 14,2 4,7 13 7 22 12 SSW 1019,1 10
19.10.2020 15:00:00 13,7 7,2 9 5 25 14 SSE 1019,9 10
19.10.2020 14:00:00 13,4 6,6 16 9 - - S 1020,8 10
19.10.2020 13:00:00 12,8 7,0 11 6 22 12 S 1021,4 10
19.10.2020 12:00:00 11,7 7,4 11 6 18 10 S 1021,7 10
19.10.2020 11:00:00 10,3 8,0 8 4 - - SSE 1022,3 10
19.10.2020 10:00:00 9,4 7,8 4 2 7 4 - 1022,3 10
19.10.2020 09:00:00 8,5 7,4 4 2 7 4 ESE 1022,1 10
19.10.2020 08:00:00 8,4 7,1 4 2 - - - 1021,8 10
19.10.2020 07:00:00 8,5 7,1 8 4 7 4 SSE 1022,1 10
19.10.2020 06:00:00 9,0 7,3 5 3 7 4 SSE 1022,3 7
19.10.2020 05:00:00 9,4 7,4 4 2 - - S 1022,6 10
19.10.2020 04:00:00 9,4 7,4 9 5 18 10 W 1023,1 10
19.10.2020 03:00:00 9,4 7,3 11 6 14 8 SW 1023,0 10
19.10.2020 02:00:00 9,3 7,2 8 4 - - W 1023,2 10
19.10.2020 01:00:00 9,8 7,7 9 5 14 8 W 1023,3 10
19.10.2020 00:00:00 10,1 7,9 9 5 14 8 WSW 1023,2 10
18.10.2020 23:00:00 10,3 8,4 8 4 - - SW 1023,1 10
18.10.2020 22:00:00 10,7 8,2 5 3 7 4 WSW 1023,0 10
18.10.2020 21:00:00 11,0 7,9 4 2 14 8 - 1023,2 10
18.10.2020 20:00:00 11,3 7,6 9 5 - - WNW 1023,2 10
18.10.2020 19:00:00 11,5 8,0 9 5 18 10 NNW 1022,7 10
18.10.2020 18:00:00 12,2 8,1 13 7 18 10 NNW 1022,3 10
18.10.2020 17:00:00 12,6 7,5 11 6 - - W 1022,3 10
18.10.2020 16:00:00 12,7 7,9 14 8 22 12 WNW 1022,4 40
18.10.2020 15:00:00 12,8 9,1 9 5 18 10 W 1022,7 8
18.10.2020 14:00:00 11,9 8,8 9 5 - - WSW 1023,1 8
18.10.2020 13:00:00 11,5 8,7 5 3 14 8 SSW 1023,5 7
18.10.2020 12:00:00 10,6 8,2 8 4 14 8 SW 1023,3 4,8
18.10.2020 11:00:00 9,7 7,7 5 3 - - WSW 1023,1 4,6
18.10.2020 10:00:00 9,3 7,4 5 3 22 12 WNW 1023,1 4,4
18.10.2020 09:00:00 8,5 6,8 15 8 22 12 SSW 1022,0 4,5
18.10.2020 08:00:00 8,2 6,4 8 4 - - SW 1022,0 4,5
18.10.2020 07:00:00 8,3 6,4 9 5 11 6 SW 1022,0 6
18.10.2020 06:00:00 8,5 6,5 5 3 11 6 SW 1022,1 4,1
18.10.2020 05:00:00 8,8 6,6 8 4 - - WSW 1022,2 6
18.10.2020 04:00:00 8,9 6,7 8 4 11 6 SW 1022,2 5
18.10.2020 03:00:00 9,3 6,9 5 3 11 6 SW 1022,2 4,3
18.10.2020 02:00:00 9,3 7,2 5 3 - - SW 1022,4 5
18.10.2020 01:00:00 8,5 7,1 2 1 4 2 - 1022,2 4,6
18.10.2020 00:00:00 9,6 7,4 4 2 7 4 S 1022,1 4,2
17.10.2020 23:00:00 9,9 7,4 4 2 - - W 1022,0 10
17.10.2020 22:00:00 10,2 7,6 5 3 7 4 W 1022,0 10
17.10.2020 21:00:00 10,4 6,0 5 3 7 4 W 1021,9 10
17.10.2020 20:00:00 10,7 6,0 8 4 - - WSW 1021,7 10
17.10.2020 19:00:00 11,1 5,6 8 4 11 6 W 1021,1 10
17.10.2020 18:00:00 11,6 5,7 5 3 11 6 W 1020,9 10
17.10.2020 17:00:00 11,7 5,3 8 4 - - W 1020,9 10
17.10.2020 16:00:00 12,4 5,6 5 3 18 10 SW 1020,9 10
17.10.2020 15:00:00 11,6 4,8 4 2 14 8 - 1021,1 10
17.10.2020 14:00:00 11,4 4,8 4 2 - - - 1021,4 10
17.10.2020 13:00:00 11,3 5,1 2 1 7 4 - 1021,8 10
17.10.2020 12:00:00 9,7 5,2 2 1 7 4 - 1021,7 10
17.10.2020 11:00:00 7,9 5,5 4 2 - - - 1021,7 10
17.10.2020 10:00:00 6,5 4,4 2 1 4 2 SE 1021,7 9
17.10.2020 09:00:00 4,8 3,5 2 1 4 2 E 1021,5 9
17.10.2020 08:00:00 4,8 3,1 2 1 - - - 1021,2 10
17.10.2020 07:00:00 4,4 3,0 0 0 4 2 N 1021,5 10
17.10.2020 06:00:00 3,5 1,8 2 1 4 2 SSW 1021,6 7
17.10.2020 05:00:00 2,9 1,4 0 0 - - N 1021,7 7
17.10.2020 04:00:00 3,3 2,2 2 1 4 2 W 1021,9 4,2
17.10.2020 03:00:00 3,0 1,3 0 0 4 2 N 1022,3 3,1
17.10.2020 02:00:00 3,8 2,5 2 1 - - NW 1022,6 3,1
17.10.2020 01:00:00 4,6 2,8 2 1 4 2 NNW 1023,0 9
17.10.2020 00:00:00 5,2 3,6 2 1 4 2 N 1023,2 9
16.10.2020 23:00:00 7,2 4,1 2 1 - - - 1023,4 10
16.10.2020 22:00:00 7,0 4,2 5 3 11 6 NE 1023,3 10
16.10.2020 21:00:00 8,7 4,9 8 4 18 10 NE 1023,4 10
16.10.2020 20:00:00 10,1 5,3 8 4 - - NE 1023,3 10
16.10.2020 19:00:00 10,4 5,2 9 5 14 8 NNE 1022,8 10
16.10.2020 18:00:00 10,9 5,4 9 5 18 10 - 1022,5 10
16.10.2020 17:00:00 11,1 5,5 11 6 - - NNE 1022,6 10
16.10.2020 16:00:00 11,3 6,1 9 5 18 10 NE 1022,8 10
16.10.2020 15:00:00 11,1 5,6 13 7 22 12 NE 1023,0 10
16.10.2020 14:00:00 11,0 5,5 13 7 - - NNE 1023,4 10
16.10.2020 13:00:00 10,2 4,8 15 8 22 12 NE 1023,9 10
16.10.2020 12:00:00 10,0 5,6 13 7 22 12 NE 1024,0 10
16.10.2020 11:00:00 8,8 5,9 11 6 - - ENE 1024,0 10
16.10.2020 10:00:00 8,1 5,6 11 6 18 10 NNE 1023,8 10
16.10.2020 09:00:00 7,9 5,4 5 3 14 8 NNE 1023,4 10
16.10.2020 08:00:00 7,8 5,6 8 4 - - NNE 1023,2 10
16.10.2020 07:00:00 8,0 5,5 9 5 14 8 NNE 1023,2 10
16.10.2020 06:00:00 8,0 5,6 9 5 14 8 NNE 1022,9 10
16.10.2020 05:00:00 8,2 5,5 9 5 - - NNE 1022,8 10
16.10.2020 04:00:00 8,2 5,5 9 5 14 8 NNE 1023,0 10
16.10.2020 03:00:00 8,2 5,4 11 6 18 10 NNE 1023,2 10
16.10.2020 02:00:00 8,3 5,1 11 6 - - NNE 1023,0 10
16.10.2020 01:00:00 7,8 4,8 8 4 11 6 NNE 1022,9 10
16.10.2020 00:00:00 8,1 4,6 8 4 18 10 NNE 1022,9 10
15.10.2020 23:00:00 9,2 4,8 9 5 - - NNE 1022,8 10
15.10.2020 22:00:00 9,9 5,4 9 5 18 10 NNE 1022,6 10
15.10.2020 21:00:00 10,1 5,6 11 6 18 10 NNE 1022,5 10
15.10.2020 20:00:00 10,2 5,6 8 4 - - N 1022,2 10
15.10.2020 19:00:00 10,2 5,7 9 5 29 16 NNE 1021,7 10
15.10.2020 18:00:00 10,5 5,3 18 10 29 16 NNE 1021,2 10
15.10.2020 17:00:00 11,4 5,4 18 10 - - NE 1020,9 10
15.10.2020 16:00:00 12,0 4,9 15 8 29 16 NNE 1020,7 10
15.10.2020 15:00:00 11,5 4,4 18 10 36 19 NNE 1021,0 10
15.10.2020 14:00:00 11,3 2,4 18 10 - - NE 1021,4 10
15.10.2020 13:00:00 11,4 4,6 18 10 29 16 NE 1021,7 10
15.10.2020 12:00:00 9,8 3,8 16 9 25 14 NNE 1021,7 10
15.10.2020 11:00:00 9,8 4,7 11 6 - - NNE 1021,4 10
15.10.2020 10:00:00 8,8 4,5 9 5 18 10 N 1021,0 10
15.10.2020 09:00:00 8,5 4,7 9 5 18 10 N 1020,6 10
15.10.2020 08:00:00 8,2 4,7 11 6 - - N 1020,3 10
15.10.2020 07:00:00 8,2 4,8 9 5 18 10 N 1020,1 10
15.10.2020 06:00:00 8,5 5,2 11 6 18 10 N 1019,9 10
15.10.2020 05:00:00 8,3 5,2 9 5 - - N 1019,9 10
15.10.2020 04:00:00 8,6 5,4 11 6 18 10 NNE 1019,9 10
15.10.2020 03:00:00 8,8 5,5 11 6 18 10 NNE 1020,0 10
15.10.2020 02:00:00 8,6 5,6 11 6 - - NNE 1019,8 10
15.10.2020 01:00:00 8,7 5,4 11 6 18 10 NNE 1019,8 10
15.10.2020 00:00:00 8,8 5,5 11 6 22 12 NNE 1020,0 10
14.10.2020 23:00:00 9,1 5,3 11 6 - - NNE 1019,8 10
14.10.2020 22:00:00 9,3 5,0 11 6 18 10 NNE 1019,6 10
14.10.2020 21:00:00 9,7 5,2 9 5 18 10 N 1019,4 10
14.10.2020 20:00:00 10,1 5,5 9 5 - - N 1019,4 10
14.10.2020 19:00:00 10,5 5,2 11 6 25 14 NNE 1019,1 10
14.10.2020 18:00:00 11,2 5,2 16 9 29 16 NNE 1018,8 10
14.10.2020 17:00:00 11,7 5,5 21 11 - - NNE 1018,6 10
14.10.2020 16:00:00 11,9 6,5 16 9 29 16 NE 1018,6 10

tt = temperature
td = dewpoint
ff = wind speed
fx = gusts
dd = wind direction
ppp = reduced air pressure
vv = visibility

Next stations